Vertical_Velocity
-5 8 4 5 3 2 3 3 4 6 5 3 2 -1 3 -9 3 3 4 6 -1 1 0 -1 -1 0 -0 -0 -0 -0 0 -5 -9 9 -1 0 -1 -5 -3 -3 -4 -4 -4
3 3 3 8 2 4 1 5 3 3 6 0 1 -9 14 -2 14 2 9 -16 2 2 -2 0 -2 -2 -1 -2 -1 -1 -2 -1 -6 -7 2 -0 -2 -1 -2 -3 -1 -2 -4
5 1 -2 -3 1 1 11 1 3 3 2 4 8 -3 -4 5 8 5 -2 2 1 -3 -1 -0 -1 -1 1 -0 -1 -0 -1 -1 -0 -9 -2 -2 -3 -4 -2 -0 -1 -1 0
-2 4 -6 -6 7 3 1 3 5 -0 3 11 -1 -4 3 3 5 1 -1 1 -4 0 -2 -2 -0 -1 -1 -2 -2 -1 -1 0 -1 -3 -3 -3 -6 1 -6 -11 1 -1 -1
-3 3 -8 4 8 2 2 10 2 6 -1 6 -1 7 9 -5 3 1 0 -3 2 -1 -3 -1 -1 -2 -2 -3 -5 -2 -1 -2 -4 -4 -3 -5 -3 -2 -7 -3 -8 -9 9
4 -1 2 3 2 1 2 10 0 4 1 4 10 6 4 2 0 -2 -1 2 -3 -0 1 -0 -1 -2 -1 1 3 1 -2 -5 -3 -5 -2 -3 0 -7 -5 -7 -6 -7 -12
12 -1 3 -2 -1 9 10 13 6 1 6 5 -0 -11 -3 4 -1 1 1 -1 -0 -1 -1 -2 1 1 1 1 0 1 1 0 1 -4 -4 -1 -4 -1 -4 -2 -2 -5 -5
-0 2 5 7 21 5 8 10 7 4 5 -3 -6 1 1 3 1 -3 -0 -1 -1 -2 -2 -1 -1 -0 -1 -2 -3 -1 -0 2 1 -0 -2 -1 -2 -2 -4 -5 -4 -6 -1
3 7 23 22 5 11 13 8 6 -4 -4 9 -2 2 4 -0 -0 -1 -1 -1 -1 -0 0 -2 -3 -2 -2 -2 -4 -1 2 3 1 2 1 -0 -1 0 -2 -5 0 -7 0
20 16 9 6 13 12 6 -5 7 2 -4 0 3 1 -1 -1 -1 -2 0 2 2 3 -1 -1 -1 -2 -1 0 -3 -4 -3 -1 0 4 3 3 -2 0 -1 -1 -3 -7 -6
9 0 2 8 1 5 1 1 -10 7 0 -0 1 -2 -2 -0 1 1 -0 -2 -2 1 -1 -1 -0 -1 -0 -1 -2 -2 -2 -2 2 -1 -1 0 0 1 2 4 1 -3 -3
-4 13 7 7 6 1 -0 7 4 1 -2 1 -3 -1 -0 -0 -0 -1 -2 -2 -4 -4 -1 -1 -2 -1 -2 -2 -2 0 -0 -1 -2 -2 -1 -1 -2 2 4 2 1 3 -2
5 0 -7 -9 -0 4 3 -1 -1 -3 -1 -1 1 0 -1 -1 -1 -1 -1 -2 -1 -2 -3 -2 -4 -3 -2 -0 -1 -1 -0 -2 -2 -1 -0 0 -3 -3 -1 -0 5 -4 2
6 -3 -2 4 2 -1 -4 -3 2 0 -1 2 0 -1 -0 -0 0 -1 -1 -2 -2 0 1 1 -2 -2 -3 -2 -1 -2 -1 -3 -2 -3 -1 -0 -1 -1 2 -4 -2 0 -2
-4 -4 -1 2 2 1 1 1 0 0 0 0 -1 -0 0 -1 -3 -4 -3 -1 -2 -3 -2 -1 1 0 2 0 0 -0 -1 -1 1 -1 -2 -3 -1 -2 3 1 -0 2 -3
0 3 2 0 0 1 -1 -0 -1 0 0 -1 -2 -1 -2 -2 -1 -0 -0 -2 -2 -2 0 -0 -0 -0 -0 -2 -0 1 -0 1 -0 -1 0 -2 -2 -2 -2 5 -1 -3 -4
2 2 2 1 -0 -0 1 0 -1 -2 -2 -0 0 -0 -1 1 -1 -1 -1 -2 -4 1 -0 -1 -1 0 -1 -1 -1 -1 1 1 -1 -1 -1 -1 -2 2 -1 1 0 -2 1
2 2 -0 0 1 1 1 -0 -1 -0 1 1 0 1 -0 -2 -3 -3 -2 0 1 -4 -3 -1 -1 1 -0 -1 -0 0 1 -0 -0 -0 -0 -1 -0 -3 -1 0 -1 -4 -3
0 -0 0 1 -0 -1 -1 -1 -1 -1 -1 0 0 -3 -2 -2 -3 -3 -3 -3 -0 0 0 -1 -1 0 -1 -0 -1 0 -1 0 -3 -4 1 0 -1 -3 1 -0 -1 1 -3
-0 0 -0 -1 -0 -1 -1 -1 -1 -1 -1 -1 -1 -1 1 1 2 2 -2 -2 -1 -1 -0 -1 -0 -1 -1 -0 1 0 1 -1 1 1 -0 -0 1 1 -1 -2 -2 -5 -0
1 0 0 0 -1 -1 -1 -1 -2 -1 -0 -1 -2 -2 -3 -3 -0 -0 -0 -1 -1 -1 -0 -0 -0 -0 0 0 0 -0 -1 -0 -0 -2 -0 2 1 -1 1 1 0 2 -1
-0 0 0 -0 -1 -2 -3 -3 -1 -1 -1 -1 -1 -0 -0 -0 -1 -1 -0 -2 -2 -1 0 1 -0 0 -0 -1 -0 -1 0 1 0 -0 0 2 0 2 1 -0 -0 -0 -3
1 0 -1 -1 -3 -3 -3 -2 -2 -2 -2 -2 -1 -0 0 -1 -1 -0 -1 -2 -2 -1 -1 -0 0 0 0 -1 -2 -2 -0 -0 -2 -0 3 -2 -5 -1 -0 -0 1 0 0
-1 -2 -2 -2 -2 -3 -3 -2 -3 -4 -2 -2 -1 -2 -2 -3 -2 -1 -3 -2 -1 -1 -1 -0 -1 0 -1 -1 -1 -1 -1 -2 -2 -4 -2 3 1 0 0 1 1 -2 1
-2 -2 -1 -2 -3 -2 -3 -4 -4 -2 -2 -3 -2 -4 -4 -2 -3 -4 -3 -1 -1 -1 -1 -0 -0 0 1 -0 -1 -1 -1 2 -0 -0 1 1 -1 0 -0 0 -1 -1 1
-1 -1 -2 -2 -2 -3 -3 -3 -2 -2 -2 -4 -4 -4 -4 -4 -3 -3 -1 -1 -1 -1 -1 0 0 -0 -1 -0 -2 0 0 0 0 0 1 1 0 -1 -1 -0 -1 -1 -1
Height
3006 3011 3017 3025 3032 3037 3041 3046 3050 3054 3057 3059 3061 3063 3065 3066 3066 3065 3065 3064 3064 3063 3060 3057 3052 3047 3042 3036 3031 3025 3019 3012 3004 3000 2992 2987 2979 2973 2967 2960 2953 2947 2941
2999 3006 3011 3018 3025 3030 3035 3039 3044 3048 3050 3052 3055 3057 3057 3061 3058 3058 3057 3054 3057 3054 3051 3047 3042 3037 3032 3026 3020 3014 3008 3002 2994 2987 2981 2973 2966 2958 2950 2942 2936 2931 2926
2995 3000 3005 3010 3017 3024 3029 3033 3037 3041 3045 3048 3050 3051 3052 3052 3051 3049 3050 3050 3048 3045 3042 3037 3032 3026 3021 3015 3009 3003 2997 2991 2984 2974 2966 2959 2951 2945 2938 2931 2923 2919 2914
2990 2995 2998 3004 3011 3018 3023 3028 3033 3036 3039 3041 3043 3043 3043 3040 3040 3041 3042 3041 3039 3036 3032 3027 3022 3016 3010 3004 2997 2991 2984 2977 2970 2961 2952 2944 2937 2931 2924 2915 2912 2908 2905
2985 2990 2996 3001 3008 3013 3018 3024 3027 3030 3033 3036 3038 3037 3036 3034 3033 3037 3036 3033 3031 3027 3022 3017 3011 3005 2999 2992 2985 2978 2971 2964 2956 2947 2938 2931 2924 2918 2912 2907 2901 2897 2897
2982 2988 2993 2999 3005 3010 3015 3018 3021 3024 3028 3029 3029 3029 3030 3029 3032 3030 3028 3025 3021 3017 3013 3007 3002 2995 2989 2982 2974 2966 2959 2951 2942 2933 2926 2919 2913 2908 2903 2897 2892 2887 2883
2979 2984 2989 2995 2999 3003 3007 3011 3016 3019 3020 3021 3024 3023 3027 3027 3024 3023 3020 3017 3013 3008 3003 2997 2992 2985 2977 2970 2963 2955 2948 2942 2933 2923 2916 2911 2905 2901 2895 2889 2883 2877 2874
2977 2982 2985 2989 2993 2998 3004 3008 3011 3014 3018 3018 3020 3023 3022 3020 3018 3015 3012 3008 3003 2998 2992 2986 2979 2973 2966 2958 2950 2941 2935 2930 2921 2916 2910 2905 2898 2893 2886 2879 2874 2867 2864
2975 2979 2983 2979 2993 2997 3001 3005 3008 3012 3014 3015 3016 3016 3016 3014 3011 3008 3004 2999 2993 2989 2983 2976 2969 2962 2954 2946 2937 2931 2925 2919 2914 2909 2904 2897 2891 2886 2880 2872 2868 2861 2856
2973 2978 2984 2990 2996 3000 3002 3005 3009 3009 3010 3013 3013 3011 3009 3006 3003 3000 2995 2990 2985 2980 2975 2967 2960 2951 2943 2936 2927 2920 2914 2910 2906 2902 2898 2893 2886 2881 2876 2869 2861 2854 2848
2982 2988 2993 2996 2997 2999 3001 3004 3005 3008 3009 3008 3007 3006 3003 3000 2995 2991 2986 2980 2975 2970 2963 2957 2949 2940 2932 2925 2918 2912 2906 2902 2898 2893 2889 2884 2880 2875 2870 2864 2857 2849 2843
2987 2991 2995 2997 2999 3000 3001 3004 3006 3005 3005 3004 3002 2998 2995 2991 2987 2983 2977 2971 2964 2957 2950 2943 2935 2929 2922 2916 2910 2905 2900 2896 2891 2887 2882 2878 2872 2868 2863 2856 2850 2844 2838
2990 2994 2998 2999 3000 3002 3004 3004 3004 3003 3002 2999 2996 2993 2989 2984 2980 2975 2969 2962 2955 2948 2941 2934 2926 2920 2914 2909 2904 2899 2894 2890 2885 2880 2875 2870 2865 2859 2854 2848 2844 2838 2833
2996 2995 2996 2999 3001 3002 3003 3001 3000 2998 2996 2993 2990 2987 2982 2977 2972 2966 2960 2954 2947 2940 2933 2926 2918 2912 2907 2903 2899 2894 2889 2884 2878 2873 2868 2863 2858 2852 2847 2841 2835 2829 2824
2995 2996 2998 3000 3000 2999 2998 2997 2995 2993 2991 2988 2984 2980 2976 2970 2963 2957 2950 2943 2935 2929 2923 2917 2912 2907 2903 2899 2895 2890 2885 2880 2875 2870 2864 2858 2852 2846 2840 2834 2827 2821 2814
2995 2996 2997 2997 2997 2996 2995 2993 2991 2989 2986 2983 2978 2973 2966 2960 2954 2947 2941 2935 2927 2921 2916 2910 2905 2902 2898 2895 2891 2887 2881 2876 2870 2865 2859 2852 2845 2839 2832 2827 2820 2813 2806
2995 2996 2997 2996 2995 2994 2993 2991 2988 2985 2981 2976 2970 2964 2957 2951 2944 2938 2932 2926 2919 2914 2909 2905 2901 2898 2895 2890 2886 2882 2878 2872 2867 2861 2854 2847 2840 2833 2826 2819 2813 2807 2801
2997 2996 2996 2995 2994 2993 2991 2987 2984 2980 2974 2968 2961 2954 2948 2942 2935 2929 2924 2918 2914 2908 2904 2901 2898 2895 2891 2887 2883 2879 2874 2869 2863 2857 2851 2843 2835 2827 2820 2814 2808 2801 2795
2997 2996 2995 2994 2992 2989 2986 2982 2977 2972 2966 2960 2954 2947 2940 2935 2927 2921 2916 2911 2907 2904 2900 2898 2895 2892 2888 2884 2880 2876 2871 2866 2860 2854 2847 2839 2831 2824 2817 2810 2804 2799 2792
2995 2994 2993 2991 2988 2984 2980 2976 2971 2965 2959 2952 2945 2938 2931 2926 2920 2915 2910 2906 2902 2899 2897 2895 2893 2890 2886 2882 2878 2874 2870 2865 2859 2852 2844 2837 2829 2822 2814 2808 2801 2795 2790
2993 2991 2989 2986 2983 2979 2975 2970 2964 2958 2951 2944 2936 2927 2920 2914 2910 2906 2904 2901 2899 2897 2895 2893 2890 2887 2884 2881 2877 2873 2868 2862 2856 2849 2842 2835 2828 2820 2814 2806 2800 2794 2787
2990 2988 2985 2982 2979 2975 2970 2964 2957 2950 2942 2934 2926 2918 2911 2906 2903 2900 2898 2897 2896 2895 2894 2891 2889 2886 2883 2880 2876 2871 2866 2860 2854 2848 2842 2834 2827 2820 2813 2806 2799 2793 2786
2987 2985 2981 2978 2974 2970 2964 2957 2950 2942 2934 2925 2917 2910 2905 2901 2898 2896 2895 2895 2895 2894 2892 2890 2888 2886 2882 2879 2874 2869 2864 2858 2853 2847 2840 2833 2825 2819 2813 2806 2800 2793 2787
2984 2981 2978 2974 2970 2964 2958 2951 2943 2934 2926 2918 2911 2905 2900 2898 2896 2895 2896 2895 2894 2893 2892 2890 2888 2886 2882 2878 2874 2869 2864 2858 2853 2847 2840 2834 2827 2820 2814 2808 2801 2794 2787
2980 2977 2974 2970 2964 2959 2952 2945 2937 2929 2921 2913 2907 2902 2899 2897 2897 2897 2896 2896 2895 2894 2892 2891 2889 2886 2882 2878 2874 2869 2864 2859 2854 2848 2842 2835 2828 2822 2815 2808 2802 2796 2789
2976 2973 2969 2965 2959 2953 2946 2939 2932 2924 2918 2912 2907 2903 2901 2900 2900 2899 2898 2897 2896 2895 2893 2891 2889 2886 2882 2878 2874 2870 2865 2859 2854 2848 2842 2836 2829 2823 2816 2809 2803 2797 2791